Regional Weather Roundup
Issued by NWS

Home | Current Version | Previous Version | Text Only | Print | Product List | Glossary On
Versions: 1 2 3 4 5 6 7 8 9 10 11 12 13 14 15 16 17 18 19 20 21 22 23 24 25 26 27 28 29 30 31 32 33 34 35 36 37 38 39 40 41 42 43 44 45 46 47 48 49 50
000
ASUS43 KFSD 231310
RWRSD

WEATHER ROUNDUP FOR SOUTH DAKOTA
NATIONAL WEATHER SERVICE SIOUX FALLS SD
800 AM CDT TUE MAY 23 2017

NOTE: "FAIR" INDICATES FEW OR NO CLOUDS BELOW 12,000 FEET WITH NO
SIGNIFICANT WEATHER AND/OR OBSTRUCTIONS TO VISIBILITY.


SDZ001>005-009-010-012>017-231400-
NORTHWEST AND NORTH CENTRAL SOUTH DAKOTA

CITY           SKY/WX    TMP DP  RH WIND       PRES   REMARKS
BUFFALO          N/A     45  39  79 W7        30.10R
FAITH            N/A     46  39  76 NW16      30.10R
MOBRIDGE       CLOUDY    53  37  54 N22G32    30.00S
$$

SDZ012>016-024>037-041>051-057-063-072>074-231400-
SOUTHWEST AND SOUTH CENTRAL SOUTH DAKOTA

CITY           SKY/WX    TMP DP  RH WIND       PRES   REMARKS
RAPID CTY ARPT CLOUDY    48  39  71 N12       30.14S
PIERRE         LGT RAIN  49  40  71 N15       30.02R
CUSTER         CLOUDY    41  30  65 N7        30.16R
ELLSWORTH AFB  CLOUDY    48  41  75 NW12      30.14R
PHILIP         SUNNY     48  41  76 NW14G21   30.09R
PINE RIDGE     CLOUDY    45  41  86 NW7       30.13R
SPEARFISH      FAIR      46  39  76 NW9       30.19R
WINNER         CLOUDY    50  42  74 NW13      30.01S
$$

SDZ004>011-016>023-039-040-231400-
NORTHEAST SOUTH DAKOTA

CITY           SKY/WX    TMP DP  RH WIND       PRES   REMARKS
ABERDEEN       LGT RAIN  47  43  86 N15       29.97R FOG
WATERTOWN      CLOUDY    46  44  93 N13       29.90R
BROOKINGS      LGT RAIN  46  44  93 N9        29.89R
SISSETON         N/A     48  46  93 N14       29.91R
$$

SDZ017-020-022-023-036>040-048>070-231400-
SOUTHEAST SOUTH DAKOTA

CITY           SKY/WX    TMP DP  RH WIND       PRES   REMARKS
SIOUX FALLS    LGT RAIN  49  45  86 N10       29.89S
HURON          CLOUDY    47  45  93 N14       29.95R
CHAMBERLAIN    CLOUDY    50  44  78 NW14G20   29.99S
MITCHELL       CLOUDY    49  45  86 NW14      29.95R
YANKTON        CLOUDY    49  45  86 NW12      29.93R
$$

ABBREVIATIONS USED IN REMARKS
   TC - TEMPERATURE IN CELSIUS
  WCI - WIND CHILL INDEX
   HX - HEAT INDEX
  VSB - VISIBILITY





USA.gov is the U.S. government's official web portal to all federal, state and local government web resources and services.